#timestamp,LO_Frequency,Hit,StdDev 
1511989215.8,286046976.2,N
1511989235.7,286046975.5,N
1511989255.5,286046972.8,Y
1511989275.3,286046994.5,P
1511989295.2,286046990.2,N
1511989315.0,286046987.3,N
1511989315.9,286046987.3,N
1511989335.7,286046989.1,N
1511989355.6,286046984.5,Y
1511989375.4,286046992.0,P
1511989395.2,286046993.2,P
1511989415.1,286046992.8,P
1511989416.0,286046992.8,Y
1511989435.8,286046996.6,P
1511989455.6,286046992.2,P
1511989475.5,286046992.7,P
1511989495.3,286046995.9,N
1511989515.2,286046992.2,Y
1511989535.9,286046993.5,P
1511989555.7,286046992.1,P
1511989575.5,286046991.0,P
1511989595.4,286046990.9,Y
1511989615.2,286047002.4,P
1511989635.0,286047000.2,N
1511989636.0,286047000.2,N
1511989655.8,286047000.4,N
1511989675.6,286046998.2,N
1511989695.4,286046996.6,N
1511989715.3,286046998.9,N
1511989735.1,286047001.7,N
1511989755.8,286047005.0,N
1511989775.7,286047007.7,N
1511989795.5,286047008.2,N
1511989815.3,286047011.5,N
1511989835.2,286047013.1,N
1511989855.9,286047014.5,N
1511989875.7,286047017.5,N
1511989895.6,286047021.8,Y
1511989915.4,286047016.1,P
1511989935.2,286047019.0,P
1511989955.0,286047018.9,N
1511989956.0,286047018.9,Y
1511989975.8,286047005.1,P
1511989995.6,286047003.9,N
1511990015.5,286047007.5,N
1511990035.3,286047005.1,N
1511990055.1,286047004.5,N
1511990075.8,286047006.0,N
1511990095.7,286047003.1,N
1511990115.5,286047004.3,N
1511990135.3,286047005.6,N
1511990155.2,286047007.3,N
1511990175.9,286047009.3,Y
1511990195.7,286047002.9,P
1511990215.6,286047010.0,P
1511990235.4,286047012.4,P
1511990255.2,286047015.3,Y
1511990275.1,286047010.2,P
1511990276.0,286047010.2,P
1511990295.8,286047010.4,P
1511990315.6,286047010.3,Y
1511990335.5,286047003.9,P
1511990355.3,286047004.8,N
1511990375.1,286047006.8,N
1511990395.9,286047009.2,Y
1511990415.7,286046999.4,P
1511990435.5,286046998.2,N
1511990455.4,286047001.4,N
1511990475.2,286047009.1,N
1511990495.0,286047006.2,N
1511990495.9,286047006.2,N
1511990515.8,286047009.9,N
1511990535.6,286047011.8,N
1511990555.4,286047006.5,N
1511990575.3,286047004.7,N
1511990595.1,286047007.1,N
1511990596.0,286047007.1,N
1511990615.8,286047004.1,N
1511990635.7,286047003.8,N
1511990655.5,286047005.5,N
1511990675.3,286047003.1,N
1511990695.1,286047001.0,N
1511990715.9,286047001.7,N
1511990735.7,286046998.6,N
1511990755.5,286046997.5,N
1511990775.4,286047001.5,N
1511990795.2,286047005.4,N
1511990815.0,286047007.1,N
1511990815.9,286047007.1,N
1511990835.8,286047006.9,N
1511990855.6,286047005.1,N
1511990875.4,286047005.5,N
1511990895.3,286047000.6,N
1511990915.1,286046993.8,N
1511990916.0,286046993.8,N
1511990935.8,286046991.1,N
1511990955.7,286046988.2,N
1511990975.5,286046981.3,Y
1511990995.3,286046973.4,P
1511991015.2,286046975.3,N
1511991035.9,286046969.5,N
1511991055.7,286046971.9,N
1511991075.6,286046971.5,N
1511991095.4,286046972.0,N
1511991115.2,286046973.5,N
1511991135.0,286046976.6,N
1511991135.9,286046976.6,N
1511991155.8,286046976.1,N
1511991175.6,286046977.7,N
1511991195.4,286046979.7,N
1511991215.3,286046981.0,N
1511991235.1,286046982.4,N
1511991255.8,286046979.0,N
1511991275.7,286046980.4,N
1511991295.5,286046978.0,Y
1511991315.3,286046996.6,P
1511991335.2,286046996.8,N
1511991355.9,286047002.8,N
1511991375.7,286047003.1,N
1511991395.6,286046999.7,N
1511991415.4,286046999.4,N
1511991435.2,286046995.2,N
1511991455.0,286046993.9,N
1511991456.0,286046993.9,N
1511991475.8,286046994.7,N
1511991495.6,286046990.7,N
1511991515.4,286046990.1,N
1511991535.3,286046989.2,N
1511991555.1,286046987.1,N
1511991575.8,286046986.6,N
1511991595.7,286046982.4,N
1511991615.5,286046980.7,N
1511991635.3,286046982.7,N
1511991655.2,286046984.1,N
1511991675.9,286046985.0,N
1511991695.7,286046985.2,N
1511991715.6,286046983.2,N
1511991735.4,286046980.1,N
1511991755.2,286046977.2,Y
1511991775.1,286046983.1,P
1511991776.0,286046983.1,P
1511991795.8,286046980.7,P
1511991815.6,286046986.3,Y
1511991835.5,286046997.0,P
1511991855.3,286046996.7,N
1511991875.1,286046997.5,N
1511991895.8,286046995.6,N
1511991915.7,286046993.9,N
1511991935.5,286046993.9,N
1511991955.3,286046994.0,N
1511991975.2,286046994.6,N
1511991995.0,286046995.0,N
1511991995.9,286046995.0,N
1511992015.7,286047001.1,N
1511992035.6,286046996.7,N
1511992055.4,286046998.7,N
1511992075.2,286046999.7,N
1511992095.1,286047001.1,N
1511992096.0,286047001.1,N
1511992115.8,286046999.3,N
1511992135.6,286046994.5,N
1511992155.5,286046991.9,N
1511992175.3,286046997.5,N
1511992195.1,286046997.3,N
1511992215.9,286046999.0,N
1511992235.7,286046998.7,N
1511992255.5,286046999.2,N
1511992275.3,286046998.3,N
1511992295.2,286046999.4,N
1511992315.0,286046998.4,N
1511992315.9,286046998.4,N
1511992335.7,286046999.3,N
1511992355.6,286047002.7,N
1511992375.4,286047001.6,N
1511992395.2,286046999.1,N
1511992415.1,286046997.0,N
1511992416.0,286046997.0,N
1511992435.8,286046998.8,N
1511992455.6,286046998.6,N
1511992475.5,286046999.1,N
1511992495.3,286046999.3,N
1511992515.1,286047002.3,N
1511992535.9,286047004.1,N
1511992555.7,286047004.0,N
1511992575.5,286047005.5,N
1511992595.3,286047002.0,N
1511992615.2,286046999.0,N
1511992635.0,286046997.3,N
1511992635.9,286046997.3,N
1511992655.7,286046998.0,N
1511992675.6,286046999.3,N
1511992695.4,286047000.7,N
1511992715.2,286047000.9,N
1511992735.1,286047002.3,N
1511992736.0,286047002.3,N
1511992755.8,286047001.0,N
1511992775.6,286047000.0,N
1511992795.5,286047000.4,N
